sat.trackr.live / text

‹ back to catalog

TRANSPORTER-15 OBJECT DM

NORAD 66773 · 2025-276DM

PAYLOAD ACTIVE UNKNOWN

§ Identity

Operator
Country
TBD
Launch date
2025-11-28
Launch site
AFWTR
Launch vehicle
Mass (kg)
RCS (m²)

External: N2YO · Heavens-Above · Gunter

§ Orbital elements

Epoch: 2026-09-19T23:00:11.852064Z

Period
94.66 min
Inclination
97.4136°
Eccentricity
0.0000736
Mean motion
15.21214395 rev/d
Perigee alt
501.7 km
Apogee alt
502.7 km
Semi-major
6,880.3 km
B*
1.3185e-4
RAAN
335.3844°
Arg perigee
167.0572°
Mean anomaly
193.0682°
Rev number
4,484

§ Raw data

TRANSPORTER-15 OBJECT DM1 66773U 25276DM  26262.95847051  .00002873  00000+0  13185-3 0  99982 66773  97.4136 335.3844 0000736 167.0572 193.0682 15.21214395 44847

JSON: /api/v1/satellites/66773 · /tle

For live sub-satellite position, see the globe view (requires WebGL).

§ Visibility from observer

Set your observer location to see the next 7 days of passes ≥ 10°. The values pass through the URL so the page stays shareable.

No JS? Fill the form by hand. The geolocation button needs JavaScript.